Weather History for Milton, FL

Change the Weather History Date:

Tuesday, September 4, 2012

  Actual Average (KNSE) Record (KNSE)
Temperature  
Mean Temperature 78 °F -  
Max Temperature 81 °F 86 °F 95 °F (2003)
Min Temperature 75 °F 69 °F 68 °F (1996)
Cooling Degree Days 13    
Growing Degree Days 28 (Base 50)    
Moisture  
Dew Point 74 °F    
Average Humidity 90    
Maximum Humidity 94    
Minimum Humidity 76    
Precipitation  
Precipitation 0.58 in - - ()
Sea Level Pressure  
Sea Level Pressure 29.90 in    
Wind  
Wind Speed 4 mph (SSE)    
Max Wind Speed 15 mph    
Max Gust Speed -    
Visibility 10 miles    
Events Rain , Thunderstorm    
Averages and records for this station are not official NWS values.
T = Trace of Precipitation, MM = Missing Value Source: NWS Daily Summary

Daily Weather History Graph

Daily Weather History Graph

Search for Another Location

Airport:

Trip Planner

Search our weather history database for the weather conditions in past years. The results will help you decide how hot, cold, wet, or windy it might be!

Date:

Astronomy

Sep. 04, 2012 Rise Set
Actual Time 6:26 AM CDT 7:06 PM CDT
Civil Twilight 6:02 AM CDT 7:31 PM CDT
Nautical Twilight 5:33 AM CDT 7:59 PM CDT
Astronomical Twilight 5:04 AM CDT 8:29 PM CDT
Moon 9:22 PM CDT (9/4) 10:11 AM CDT (9/4)
Length of Visible Light 13h 29m
Length of Day
12h 40m
Waning Gibbous, 83% of the Moon is Illuminated
Sep 4
Waning Gibbous
Sep 8
Last Quarter
Sep 15
New
Sep 22
First Quarter
Sep 29
Full

Hourly Weather History & Observations

Time (CDT) Temp. Heat Index Dew Point Humidity Pressure Visibility Wind Dir Wind Speed Gust Speed Precip Events Conditions
12:56 AM 80.1 °F 85.4 °F 75.9 °F 87% 29.92 in 10.0 mi SSW 4.6 mph - N/A   Mostly Cloudy
1:56 AM 80.1 °F 85.4 °F 75.9 °F 87% 29.91 in 10.0 mi SSW 3.5 mph - N/A   Partly Cloudy
2:56 AM 80.1 °F 85.8 °F 77.0 °F 90% 29.91 in 10.0 mi SSW 3.5 mph - N/A   Clear
3:56 AM 80.1 °F 85.4 °F 75.9 °F 87% 29.90 in 10.0 mi SW 3.5 mph - N/A   Mostly Cloudy
4:56 AM 80.1 °F 85.4 °F 75.9 °F 87% 29.89 in 10.0 mi SSW 4.6 mph - N/A   Partly Cloudy
5:56 AM 80.1 °F 85.4 °F 75.9 °F 87% 29.91 in 10.0 mi Calm Calm - N/A   Mostly Cloudy
6:09 AM 80.6 °F 87.1 °F 77.0 °F 89% 29.95 in 10.0 mi Calm Calm - N/A Thunderstorm Thunderstorm
6:25 AM 80.6 °F 87.1 °F 77.0 °F 89% 29.95 in 10.0 mi Variable 3.5 mph - N/A   Mostly Cloudy
6:32 AM 80.6 °F 87.1 °F 77.0 °F 89% 29.95 in 10.0 mi SW 3.5 mph - N/A   Scattered Clouds
6:54 AM 80.6 °F 87.1 °F 77.0 °F 89% 29.96 in 10.0 mi Variable 3.5 mph - N/A Thunderstorm Thunderstorm
6:56 AM 80.1 °F 85.8 °F 77.0 °F 90% 29.91 in 10.0 mi Variable 5.8 mph - N/A Thunderstorm Thunderstorm
7:56 AM 78.1 °F - 70.0 °F 76% 29.91 in 10.0 mi SW 3.5 mph - N/A Thunderstorm Thunderstorm
8:56 AM 78.1 °F - 72.0 °F 81% 29.92 in 10.0 mi Variable 4.6 mph - N/A   Partly Cloudy
9:56 AM 81.0 °F 86.7 °F 75.0 °F 82% 29.93 in 10.0 mi Calm Calm - N/A   Mostly Cloudy
10:56 AM 80.1 °F 85.4 °F 75.9 °F 87% 29.95 in 10.0 mi SSW 3.5 mph - 0.00 in Rain Light Rain
11:56 AM 80.1 °F 85.8 °F 77.0 °F 90% 29.94 in 10.0 mi ESE 8.1 mph - 0.02 in Rain Light Rain
12:12 PM 75.2 °F - 73.4 °F 94% 29.99 in 10.0 mi ESE 15.0 mph - 0.01 in Rain Light Rain
12:56 PM 75.0 °F - 73.0 °F 94% 29.94 in 10.0 mi East 4.6 mph - 0.02 in Rain Light Rain
1:56 PM 75.0 °F - 73.0 °F 94% 29.91 in 10.0 mi ESE 5.8 mph - 0.03 in Rain Light Rain
2:45 PM 75.2 °F - 73.4 °F 94% 29.94 in 10.0 mi SE 5.8 mph - 0.03 in Rain , Thunderstorm Light Thunderstorms and Rain
2:56 PM 75.0 °F - 73.0 °F 94% 29.89 in 10.0 mi SE 8.1 mph - 0.03 in Rain , Thunderstorm Light Thunderstorms and Rain
3:27 PM 75.2 °F - 73.4 °F 94% 29.93 in 10.0 mi SE 5.8 mph - 0.05 in Rain Rain
3:56 PM 75.0 °F - 73.0 °F 94% 29.88 in 10.0 mi SE 4.6 mph - 0.12 in Rain Rain
4:30 PM 75.2 °F - 73.4 °F 94% 29.93 in 8.0 mi East 5.8 mph - 0.07 in Rain , Thunderstorm Thunderstorms and Rain
4:56 PM 75.0 °F - 73.0 °F 94% 29.88 in 6.0 mi East 4.6 mph - 0.17 in Rain , Thunderstorm Heavy Thunderstorms and Rain
5:56 PM 75.9 °F - 73.0 °F 91% 29.86 in 10.0 mi South 9.2 mph - 0.10 in   Mostly Cloudy
6:56 PM 75.9 °F - 73.0 °F 91% 29.84 in 10.0 mi Variable 3.5 mph - 0.01 in   Partly Cloudy
7:09 PM 75.2 °F - 73.4 °F 94% 29.88 in 10.0 mi SW 3.5 mph - N/A Thunderstorm Thunderstorm
7:54 PM 75.2 °F - 73.4 °F 94% 29.88 in 10.0 mi South 5.8 mph - N/A   Overcast
7:56 PM 75.9 °F - 73.9 °F 94% 29.84 in 10.0 mi South 5.8 mph - N/A   Overcast
8:56 PM 77.0 °F - 73.0 °F 88% 29.85 in 10.0 mi Variable 5.8 mph - 0.00 in Rain Light Rain
9:56 PM 75.9 °F - 73.0 °F 91% 29.84 in 10.0 mi Variable 6.9 mph - 0.00 in   Overcast
10:56 PM 75.9 °F - 73.9 °F 94% 29.83 in 10.0 mi Calm Calm - N/A   Overcast
11:09 PM 75.2 °F - 73.4 °F 94% 29.87 in 10.0 mi Calm Calm - 0.00 in Rain , Thunderstorm Light Thunderstorms and Rain
11:21 PM 75.2 °F - 73.4 °F 94% 29.86 in 9.0 mi Calm Calm - 0.02 in Rain Rain
11:56 PM 75.9 °F - 73.9 °F 94% 29.81 in 7.0 mi Calm Calm - 0.08 in Rain Rain